Time,TemperatureF,DewpointF,PressureIn,WindDirection,WindDirectionDegrees,WindSpeedMPH,WindSpeedGustMPH,Humidity,HourlyPrecipIn,Conditions,Clouds,dailyrainin,SoftwareType,DateUTC
2013-07-17 00:00:00,57.0,51.0,-100.00,North,-999,-999.0,-999.0,79,-99.99,,,-99.99,,2013-07-17 07:00:00,
2013-07-17 00:52:00,57.0,51.0,-100.00,North,-999,-999.0,-999.0,79,-99.99,,,-99.99,,2013-07-17 07:52:00,
2013-07-17 01:00:00,60.0,54.0,-100.00,South,181,2.0,3.0,80,-99.99,,,-99.99,,2013-07-17 08:00:00,
2013-07-17 01:53:00,60.0,54.0,-100.00,South,181,2.0,3.0,80,-99.99,,,-99.99,,2013-07-17 08:53:00,
2013-07-17 02:00:00,55.0,48.0,-100.00,South,174,2.0,3.0,77,-99.99,,,-99.99,,2013-07-17 09:00:00,
2013-07-17 02:52:00,55.0,48.0,-100.00,South,174,2.0,3.0,77,-99.99,,,-99.99,,2013-07-17 09:52:00,
2013-07-17 03:00:00,55.0,54.0,-100.00,West,276,2.0,4.0,96,-99.99,,,0.00,,2013-07-17 10:00:00,
2013-07-17 03:52:00,55.0,54.0,-100.00,West,276,2.0,4.0,96,-99.99,,,0.00,,2013-07-17 10:52:00,
2013-07-17 04:00:00,53.0,52.0,-100.00,NNE,28,1.0,2.0,95,-99.99,,,0.00,,2013-07-17 11:00:00,
2013-07-17 05:00:00,53.0,53.0,-100.00,WSW,240,1.0,2.0,98,-99.99,,,0.00,,2013-07-17 12:00:00,
2013-07-17 06:00:00,53.0,52.0,-100.00,ENE,69,3.0,6.0,98,-99.99,,,0.00,,2013-07-17 13:00:00,
2013-07-17 07:00:00,51.0,50.0,-100.00,SSW,193,3.0,4.0,98,-99.99,,,0.00,,2013-07-17 14:00:00,
2013-07-17 08:00:00,53.0,53.0,-100.00,SSW,202,2.0,3.0,100,-99.99,,,0.01,,2013-07-17 15:00:00,
2013-07-17 08:52:00,53.0,53.0,-100.00,SSW,202,2.0,3.0,100,-99.99,,,0.01,,2013-07-17 15:52:00,
2013-07-17 09:00:00,53.0,53.0,-100.00,South,172,1.0,3.0,100,-99.99,,,0.01,,2013-07-17 16:00:00,
2013-07-17 10:00:00,55.0,55.0,-100.00,NNE,25,1.0,3.0,98,-99.99,,,0.02,,2013-07-17 17:00:00,
2013-07-17 11:00:00,51.0,51.0,-100.00,ENE,60,1.0,3.0,98,-99.99,,,0.02,,2013-07-17 18:00:00,
2013-07-17 11:52:00,51.0,51.0,-100.00,ENE,60,1.0,3.0,98,-99.99,,,0.02,,2013-07-17 18:52:00,
2013-07-17 12:00:00,51.0,50.0,-100.00,East,83,2.0,3.0,99,-99.99,,,0.03,,2013-07-17 19:00:00,
2013-07-17 13:00:00,53.0,53.0,-100.00,SSE,163,1.0,2.0,100,-99.99,,,0.02,,2013-07-17 20:00:00,
2013-07-17 13:52:00,53.0,53.0,-100.00,SSE,163,1.0,2.0,100,-99.99,,,0.02,,2013-07-17 20:52:00,
2013-07-17 14:00:00,52.0,52.0,-100.00,NE,36,1.0,2.0,99,-99.99,,,0.03,,2013-07-17 21:00:00,
2013-07-17 15:00:00,53.0,53.0,-100.00,South,184,1.0,3.0,99,-99.99,,,0.03,,2013-07-17 22:00:00,
2013-07-17 16:00:00,57.0,57.0,-100.00,SSW,199,1.0,3.0,99,-99.99,,,0.02,,2013-07-17 23:00:00,
2013-07-17 17:00:00,54.0,53.0,-100.00,South,170,1.0,2.0,96,-99.99,,,0.01,,2013-07-18 00:00:00,
2013-07-17 17:52:00,54.0,53.0,-100.00,South,170,1.0,2.0,96,-99.99,,,0.01,,2013-07-18 00:52:00,
2013-07-17 18:00:00,54.0,53.0,-100.00,ESE,122,1.0,2.0,97,-99.99,,,0.01,,2013-07-18 01:00:00,
2013-07-17 18:53:00,54.0,53.0,-100.00,ESE,122,1.0,2.0,97,-99.99,,,0.01,,2013-07-18 01:53:00,
2013-07-17 19:00:00,53.0,53.0,-100.00,SSE,160,1.0,2.0,98,-99.99,,,0.02,,2013-07-18 02:00:00,
2013-07-17 20:00:00,53.0,53.0,-100.00,South,176,1.0,3.0,99,-99.99,,,0.02,,2013-07-18 03:00:00,
2013-07-17 21:00:00,51.0,50.0,-100.00,South,176,1.0,2.0,99,-99.99,,,0.02,,2013-07-18 04:00:00,
2013-07-17 22:00:00,50.0,50.0,-100.00,North,-999,-999.0,-999.0,99,-99.99,,,0.02,,2013-07-18 05:00:00,
2013-07-17 23:00:00,49.0,45.0,-100.00,SSW,207,0.0,2.0,86,-99.99,,,0.02,,2013-07-18 06:00:00,
2013-07-17 23:43:00,49.0,45.0,-100.00,SSW,207,0.0,2.0,86,-99.99,,,0.02,,2013-07-18 06:43:00,
2013-07-17 23:52:00,49.0,45.0,-100.00,SSW,207,0.0,2.0,86,-99.99,,,0.02,,2013-07-18 06:52:00,